Hourly Weather Otvodnoe

Today, 1 August, Sunday

Time Temperature Precipitation Wind Pressure Humidity
00:00 +18°C° 0 mm 2 mps 747 mmHg 67%
01:00 +17°C° 0 mm 2 mps 747 mmHg 69%
02:00 +17°C° 0 mm 2 mps 747 mmHg 70%
03:00 +16°C° 0 mm 2 mps 748 mmHg 72%
04:00 +17°C° 0 mm 2 mps 748 mmHg 72%
05:00 +17°C° 0 mm 2 mps 748 mmHg 72%
06:00 +18°C° 0 mm 1 mps 748 mmHg 73%
07:00 +20°C° 0 mm 1 mps 748 mmHg 66%
08:00 +23°C° 0 mm 2 mps 749 mmHg 59%
09:00 +25°C° 0 mm 2 mps 749 mmHg 52%
10:00 +26°C° 0 mm 2 mps 749 mmHg 48%
11:00 +27°C° 0 mm 2 mps 749 mmHg 43%
12:00 +29°C° 0 mm 2 mps 749 mmHg 39%
13:00 +29°C° 0 mm 3 mps 748 mmHg 38%
14:00 +30°C° 0 mm 3 mps 748 mmHg 37%
15:00 +31°C° 0 mm 3 mps 748 mmHg 36%
16:00 +30°C° 0.1 mm 2 mps 748 mmHg 42%
17:00 +29°C° 0.1 mm 2 mps 748 mmHg 49%
18:00 +28°C° 0.1 mm 2 mps 747 mmHg 55%
19:00 +26°C° 0 mm 2 mps 747 mmHg 58%
20:00 +25°C° 0 mm 2 mps 747 mmHg 61%
21:00 +23°C° 0 mm 2 mps 747 mmHg 64%
22:00 +23°C° 0 mm 2 mps 747 mmHg 64%
23:00 +21°C° 0 mm 2 mps 747 mmHg 65%

Tomorrow, 2 August, Monday

Time Temperature Precipitation Wind Pressure Humidity
00:00 +22°C° 0 mm 1 mps 747 mmHg 65%
01:00 +21°C° 0 mm 1 mps 747 mmHg 67%
02:00 +21°C° 0 mm 1 mps 747 mmHg 70%
03:00 +21°C° 0 mm 1 mps 747 mmHg 72%
04:00 +21°C° 0 mm 1 mps 747 mmHg 73%
05:00 +20°C° 0 mm 2 mps 747 mmHg 74%
06:00 +20°C° 0 mm 2 mps 747 mmHg 75%
07:00 +23°C° 0.1 mm 2 mps 747 mmHg 70%
08:00 +25°C° 0.1 mm 2 mps 747 mmHg 64%
09:00 +27°C° 0.1 mm 2 mps 747 mmHg 59%
10:00 +28°C° 0 mm 3 mps 747 mmHg 55%
11:00 +29°C° 0 mm 3 mps 747 mmHg 50%
12:00 +31°C° 0 mm 3 mps 747 mmHg 46%
13:00 +30°C° 0.1 mm 3 mps 746 mmHg 47%
14:00 +29°C° 0.1 mm 2 mps 746 mmHg 49%
15:00 +29°C° 0.1 mm 2 mps 745 mmHg 50%
16:00 +29°C° 0 mm 2 mps 745 mmHg 49%
17:00 +29°C° 0 mm 3 mps 744 mmHg 49%
18:00 +30°C° 0 mm 3 mps 744 mmHg 49%
19:00 +28°C° 0.1 mm 3 mps 744 mmHg 54%
20:00 +26°C° 0.1 mm 3 mps 744 mmHg 60%
21:00 +24°C° 0.1 mm 2 mps 743 mmHg 65%
22:00 +24°C° 0.1 mm 3 mps 743 mmHg 67%
23:00 +22°C° 0.1 mm 3 mps 743 mmHg 69%

Day after tomorrow, 3 August, Tuesday

Time Temperature Precipitation Wind Pressure Humidity
00:00 +22°C° 0.1 mm 3 mps 743 mmHg 70%
01:00 +21°C° 0.2 mm 3 mps 743 mmHg 76%
02:00 +20°C° 0.2 mm 3 mps 743 mmHg 82%
03:00 +20°C° 0.2 mm 3 mps 743 mmHg 88%
04:00 +19°C° 0 mm 3 mps 743 mmHg 89%
05:00 +19°C° 0 mm 3 mps 744 mmHg 89%
06:00 +19°C° 0 mm 4 mps 744 mmHg 90%
07:00 +20°C° 0.1 mm 4 mps 744 mmHg 85%
08:00 +21°C° 0.1 mm 4 mps 744 mmHg 80%
09:00 +23°C° 0.1 mm 4 mps 744 mmHg 75%
10:00 +23°C° 0 mm 5 mps 744 mmHg 72%
11:00 +23°C° 0 mm 5 mps 745 mmHg 70%
12:00 +25°C° 0 mm 5 mps 745 mmHg 68%
13:00 +25°C° 0 mm 5 mps 745 mmHg 66%
14:00 +25°C° 0 mm 5 mps 745 mmHg 63%
15:00 +25°C° 0 mm 4 mps 745 mmHg 60%
16:00 +25°C° 0.1 mm 4 mps 745 mmHg 62%
17:00 +23°C° 0.1 mm 4 mps 746 mmHg 63%
18:00 +23°C° 0.1 mm 4 mps 746 mmHg 65%
19:00 +21°C° 0 mm 3 mps 746 mmHg 71%
20:00 +20°C° 0 mm 3 mps 747 mmHg 76%
21:00 +18°C° 0 mm 2 mps 747 mmHg 82%
22:00 +17°C° 0 mm 2 mps 748 mmHg 84%
23:00 +16°C° 0 mm 2 mps 748 mmHg 86%

4 August, Wednesday

Time Temperature Precipitation Wind Pressure Humidity
00:00 +16°C° 0 mm 2 mps 748 mmHg 89%
01:00 +15°C° 0 mm 2 mps 748 mmHg 91%
02:00 +15°C° 0 mm 2 mps 749 mmHg 94%
03:00 +15°C° 0 mm 2 mps 749 mmHg 96%
04:00 +15°C° 0 mm 1 mps 749 mmHg 94%
05:00 +15°C° 0 mm 1 mps 749 mmHg 92%
06:00 +15°C° 0 mm 1 mps 750 mmHg 90%
07:00 +17°C° 0 mm 2 mps 750 mmHg 79%
08:00 +20°C° 0 mm 2 mps 750 mmHg 67%
09:00 +23°C° 0 mm 2 mps 751 mmHg 55%
10:00 +22°C° 0 mm 3 mps 751 mmHg 51%
11:00 +24°C° 0 mm 3 mps 751 mmHg 48%
12:00 +25°C° 0 mm 3 mps 751 mmHg 44%
13:00 +25°C° 0 mm 3 mps 751 mmHg 42%
14:00 +26°C° 0 mm 3 mps 751 mmHg 40%
15:00 +26°C° 0 mm 2 mps 751 mmHg 38%
16:00 +25°C° 0 mm 2 mps 751 mmHg 44%
17:00 +24°C° 0 mm 2 mps 751 mmHg 50%
18:00 +23°C° 0 mm 2 mps 751 mmHg 55%
19:00 +21°C° 0 mm 2 mps 752 mmHg 58%
20:00 +21°C° 0 mm 1 mps 752 mmHg 61%
21:00 +20°C° 0 mm 1 mps 752 mmHg 64%
22:00 +19°C° 0 mm 1 mps 752 mmHg 68%
23:00 +19°C° 0 mm 1 mps 752 mmHg 72%

5 August, Thursday

Time Temperature Precipitation Wind Pressure Humidity
00:00 +18°C° 0 mm 1 mps 752 mmHg 76%
01:00 +16°C° 0 mm 1 mps 752 mmHg 80%
02:00 +16°C° 0 mm 1 mps 753 mmHg 84%
03:00 +15°C° 0 mm 1 mps 753 mmHg 88%
04:00 +15°C° 0 mm 1 mps 753 mmHg 87%
05:00 +15°C° 0 mm 1 mps 753 mmHg 86%
06:00 +16°C° 0 mm 1 mps 753 mmHg 85%
07:00 +19°C° 0 mm 1 mps 753 mmHg 76%
08:00 +21°C° 0 mm 1 mps 753 mmHg 67%
09:00 +23°C° 0 mm 1 mps 753 mmHg 58%
10:00 +25°C° 0 mm 1 mps 753 mmHg 53%
11:00 +26°C° 0 mm 1 mps 753 mmHg 48%
12:00 +28°C° 0 mm 1 mps 753 mmHg 43%
13:00 +27°C° 0 mm 1 mps 753 mmHg 44%
14:00 +27°C° 0 mm 1 mps 753 mmHg 45%
15:00 +26°C° 0 mm 1 mps 752 mmHg 46%
16:00 +26°C° 0 mm 1 mps 752 mmHg 48%
17:00 +26°C° 0 mm 1 mps 752 mmHg 49%
18:00 +24°C° 0 mm 0 mps 752 mmHg 51%
19:00 +25°C° 0 mm 1 mps 752 mmHg 54%
20:00 +23°C° 0 mm 1 mps 752 mmHg 58%
21:00 +21°C° 0 mm 1 mps 752 mmHg 62%
22:00 +21°C° 0 mm 1 mps 752 mmHg 63%
23:00 +20°C° 0 mm 2 mps 751 mmHg 64%

6 August, Friday

Time Temperature Precipitation Wind Pressure Humidity
00:00 +20°C° 0 mm 2 mps 751 mmHg 65%
01:00 +19°C° 0 mm 2 mps 751 mmHg 65%
02:00 +19°C° 0 mm 2 mps 751 mmHg 66%
03:00 +19°C° 0 mm 2 mps 751 mmHg 66%
04:00 +20°C° 0 mm 1 mps 751 mmHg 66%
05:00 +20°C° 0 mm 1 mps 751 mmHg 66%
06:00 +20°C° 0 mm 1 mps 751 mmHg 67%
07:00 +20°C° 0 mm 1 mps 751 mmHg 66%
08:00 +19°C° 0 mm 2 mps 751 mmHg 66%
09:00 +19°C° 0 mm 2 mps 751 mmHg 66%
10:00 +21°C° 0 mm 2 mps 751 mmHg 57%
11:00 +25°C° 0 mm 3 mps 750 mmHg 49%
12:00 +27°C° 0 mm 3 mps 750 mmHg 40%
13:00 +29°C° 0 mm 4 mps 750 mmHg 36%
14:00 +30°C° 0 mm 4 mps 749 mmHg 32%
15:00 +33°C° 0 mm 5 mps 749 mmHg 28%
16:00 +32°C° 0 mm 4 mps 749 mmHg 30%
17:00 +32°C° 0 mm 4 mps 748 mmHg 32%
18:00 +30°C° 0 mm 4 mps 748 mmHg 34%
19:00 +29°C° 0 mm 4 mps 748 mmHg 37%
20:00 +27°C° 0 mm 4 mps 748 mmHg 40%
21:00 +25°C° 0 mm 4 mps 748 mmHg 43%
22:00 +25°C° 0 mm 4 mps 748 mmHg 43%
23:00 +25°C° 0 mm 5 mps 748 mmHg 43%
Show more